Temperature
4 5 5 5 5 5 5 4 4 5 5 6 6 6 6 7 7 6 6 6 6 6 6 6 6 6 6 5 5 5 5 5 5 5 5 5 5 5 5 5 5 5 5 5
4 5 5 5 5 5 5 5 5 5 6 6 7 7 7 7 6 6 7 7 6 6 6 6 6 6 5 5 5 5 5 5 5 5 5 5 5 5 5 5 5 5 5 5
3 4 4 4 5 5 5 5 5 5 6 6 6 6 6 7 7 7 7 7 7 6 6 6 6 6 5 5 5 5 5 5 5 5 5 5 5 5 5 4 5 5 4 4
3 3 5 7 7 6 5 6 5 6 6 6 6 7 8 8 8 7 7 7 7 7 6 6 6 6 5 5 5 5 5 5 4 4 4 4 4 4 4 4 4 4 4 4
3 3 4 6 6 6 6 6 6 6 6 6 7 6 7 8 8 8 8 8 7 7 7 6 6 6 5 5 5 5 5 5 4 4 4 4 4 4 4 4 4 4 4 4
3 3 5 7 7 7 7 6 7 6 5 6 6 4 6 9 8 8 8 7 7 7 6 6 6 6 5 5 5 5 5 4 4 4 4 4 4 4 4 4 4 3 3 3
2 3 4 5 6 7 6 7 8 8 7 7 5 7 8 8 8 8 8 7 7 6 6 6 6 5 5 5 5 5 4 4 4 4 3 3 3 3 3 3 3 3 3 3
2 2 4 6 5 5 6 8 9 9 9 8 8 8 8 8 8 8 7 7 7 6 6 6 6 5 5 5 5 4 4 4 4 3 3 3 3 3 3 3 3 3 2 2
3 5 6 7 7 9 9 8 9 9 9 8 8 8 8 8 8 7 7 7 6 6 6 6 6 5 5 5 4 4 4 4 3 3 3 3 3 3 3 3 2 2 2 2
2 4 5 6 7 8 8 8 8 8 8 7 7 7 7 7 7 7 7 6 6 6 6 6 5 5 5 5 4 4 4 3 3 3 3 2 2 2 2 2 2 2 2 2
3 4 5 7 8 8 8 8 8 8 8 7 7 7 7 7 7 7 7 6 6 6 6 6 5 5 5 4 4 4 4 3 3 3 2 2 2 2 2 2 1 2 1 1
5 6 5 6 8 8 8 7 7 7 7 7 7 7 7 6 6 6 6 6 6 6 5 5 5 5 5 4 4 4 3 3 3 2 2 2 2 1 1 1 1 1 1 1
6 7 7 7 7 7 7 7 7 6 6 6 6 6 6 6 6 6 6 6 6 5 5 5 5 5 5 4 4 3 3 3 3 2 2 1 1 1 1 1 0 0 0 0
6 6 5 6 6 6 6 6 6 6 6 6 6 6 6 6 6 5 5 5 5 5 5 5 4 5 4 4 3 3 3 3 2 2 2 1 1 1 0 0 0 0 -0 -0
5 5 5 5 5 5 5 5 5 5 5 5 5 5 5 5 5 5 5 5 5 4 4 4 4 4 4 4 3 3 3 2 2 2 1 1 0 0 0 -0 -0 -0 -0 -1
5 4 4 4 4 5 5 4 4 5 5 5 5 5 5 5 5 5 5 4 4 4 4 4 4 4 3 3 3 3 2 2 1 1 1 0 -0 -0 -0 -1 -1 -1 -1 -1
3 3 4 4 4 4 4 4 4 4 4 4 4 4 4 4 4 4 4 4 4 4 4 4 4 3 3 3 3 2 2 1 1 0 0 -0 -0 -1 -1 -1 -1 -1 -1 -2
3 3 3 3 3 3 4 4 4 4 4 4 4 4 4 3 3 4 4 4 3 3 3 3 3 3 3 3 2 2 1 1 1 0 -0 -1 -1 -1 -1 -1 -2 -2 -2 -2
4 3 3 3 3 3 4 4 4 4 4 4 4 3 3 3 3 3 3 3 3 3 3 3 3 2 2 2 2 1 1 1 0 -0 -1 -1 -1 -2 -2 -2 -2 -2 -2 -3
4 4 3 3 3 3 3 4 4 4 4 3 3 3 3 3 3 3 3 3 3 3 3 2 2 2 2 2 1 1 1 0 -0 -1 -1 -1 -1 -2 -2 -2 -2 -3 -3 -3
3 3 3 3 3 3 3 3 3 3 3 3 3 3 3 3 3 2 2 2 3 2 2 2 2 2 1 1 1 0 0 -0 -1 -1 -1 -1 -2 -2 -2 -3 -3 -3 -3 -3
3 3 3 3 3 3 3 3 3 3 3 3 3 2 2 2 2 2 2 2 2 2 2 1 1 1 1 1 0 -0 -0 -1 -1 -1 -2 -2 -2 -2 -3 -3 -3 -3 -3 -4
3 2 3 3 3 2 3 3 3 2 2 2 2 2 2 2 2 2 2 2 1 1 1 1 1 1 1 0 -0 -0 -1 -1 -1 -2 -2 -2 -2 -3 -3 -3 -3 -3 -4 -4
2 2 2 2 2 2 2 2 2 2 2 2 2 2 1 1 1 1 1 1 1 1 1 1 0 0 -0 -0 -1 -1 -1 -1 -2 -2 -2 -3 -3 -3 -3 -3 -3 -4 -4 -4
2 1 1 1 1 2 2 2 2 1 1 1 1 1 1 1 1 1 1 1 0 0 0 0 -0 -1 -1 -1 -1 -1 -1 -2 -2 -2 -3 -3 -3 -3 -3 -4 -4 -4 -4 -4
1 1 1 1 1 1 1 1 1 1 1 1 1 1 1 0 0 0 0 -0 -0 -0 -0 -1 -1 -1 -1 -1 -1 -2 -2 -2 -2 -3 -3 -3 -3 -3 -4 -4 -4 -4 -5 -5
0 0 0 1 1 1 1 1 1 1 1 1 1 0 0 -0 -0 -0 -0 -0 -1 -1 -1 -1 -1 -1 -1 -2 -2 -2 -2 -3 -3 -3 -3 -3 -4 -4 -4 -4 -4 -5 -5 -5
Wind_Speed
11 12 9 12 13 11 13 12 11 11 11 15 10 9 8 7 6 6 6 6 7 6 5 4 4 3 3 3 2 3 3 3 2 2 2 1 1 1 1 1 1 1 2 1
8 9 10 13 16 15 15 14 16 16 17 14 9 8 7 8 7 8 8 9 8 7 6 6 6 5 4 4 3 3 4 3 3 2 2 2 1 1 1 1 1 1 1 1
7 7 8 10 11 12 8 9 10 15 14 8 7 8 8 8 9 9 10 9 9 8 8 7 7 6 6 5 4 4 4 3 3 3 2 2 2 2 1 1 1 1 1 1
5 6 8 8 3 7 9 10 12 12 10 8 9 8 8 8 9 9 9 9 9 8 7 6 6 5 5 5 5 5 4 4 4 3 3 2 2 2 1 1 1 1 1 1
4 6 10 10 5 5 7 8 10 13 13 10 6 5 7 8 9 10 9 9 8 8 7 6 6 6 5 5 5 5 5 4 4 4 3 3 3 2 2 1 1 1 1 1
5 5 8 8 3 2 2 7 7 8 9 7 3 3 7 6 6 7 7 6 6 6 5 6 6 6 6 6 6 6 6 5 4 4 4 4 3 2 1 1 1 1 0 0
9 9 10 9 4 3 3 7 4 6 7 6 8 9 6 4 5 6 6 6 6 6 6 7 7 7 7 7 7 7 5 4 4 4 4 4 3 2 2 2 1 1 1 1
7 9 12 6 6 7 9 4 4 5 6 8 9 8 7 6 6 5 5 5 6 6 6 6 7 8 8 8 7 5 5 5 4 4 4 3 3 3 2 2 2 1 1 1
11 12 7 6 9 8 5 6 6 6 7 8 8 8 7 6 6 6 6 6 6 7 7 6 7 9 10 8 6 6 5 5 4 4 3 3 4 4 3 2 2 2 2 2
10 14 13 12 11 10 8 10 10 9 8 7 9 9 8 7 6 6 6 6 6 7 7 7 7 8 9 7 7 7 7 6 5 4 4 3 3 3 3 3 3 3 2 2
12 13 11 11 13 14 13 10 10 9 9 9 9 9 9 8 8 7 7 6 6 8 9 9 8 8 7 7 8 8 7 6 6 5 5 4 4 4 4 4 5 5 4 3
15 13 10 10 9 9 10 12 12 10 10 9 10 11 10 9 8 8 7 7 7 8 9 8 8 8 7 8 9 9 7 7 6 5 5 4 4 2 3 4 5 6 5 4
22 18 15 16 16 14 13 13 12 12 12 11 10 10 10 9 8 7 7 8 9 9 9 8 8 8 8 8 9 9 8 7 6 5 5 5 5 4 3 2 3 4 5 5
19 15 16 17 17 15 14 13 12 11 11 10 9 8 8 8 8 8 9 9 9 8 8 8 8 9 8 9 9 9 8 8 7 6 6 6 5 5 5 4 3 2 3 4
19 17 18 16 14 13 11 10 10 11 10 9 8 8 9 9 10 10 9 7 7 7 8 8 9 9 8 9 10 9 8 6 6 6 6 6 5 5 5 5 4 3 2 2
14 13 15 15 16 15 12 11 12 12 11 10 9 10 10 10 9 8 7 7 7 9 9 9 10 9 8 9 9 8 7 10 9 6 6 6 5 5 5 5 4 4 4 3
14 15 15 14 15 14 13 12 12 12 10 10 11 10 8 8 7 7 8 8 9 9 9 9 9 7 8 10 9 8 7 8 10 7 6 6 6 6 6 5 5 5 4 5
16 18 16 14 14 13 12 11 11 11 11 11 9 8 8 8 9 9 8 7 6 7 7 8 7 7 8 9 8 7 7 7 7 7 6 6 6 6 5 5 6 5 4 4
15 15 15 14 12 11 10 10 10 10 9 8 8 9 9 9 9 8 6 6 7 9 8 7 9 9 8 10 9 7 7 7 7 6 6 8 7 6 6 6 5 5 4 4
10 10 11 11 10 9 9 9 8 8 7 7 7 7 8 8 7 7 6 7 8 7 6 7 8 7 8 9 11 7 8 8 8 7 7 7 7 6 6 6 5 5 5 5
9 9 9 9 9 8 8 7 7 7 6 6 7 8 8 7 6 6 6 7 7 6 6 8 7 6 7 8 11 7 8 8 8 7 7 7 7 6 6 6 6 5 5 5
7 8 8 8 7 7 6 5 5 6 5 6 6 6 6 6 6 6 7 7 6 7 5 5 5 8 9 10 7 7 8 8 7 7 7 7 7 7 7 6 6 6 5 5
8 7 7 7 6 6 5 5 5 5 6 6 7 7 7 6 5 6 7 5 4 7 6 5 8 11 12 8 7 7 8 8 8 7 7 7 7 7 6 7 6 6 5 5
8 8 7 6 4 4 5 6 5 5 5 6 6 7 6 5 5 6 5 5 7 7 5 7 11 12 11 6 6 7 7 8 7 7 7 6 6 6 6 6 6 5 5 5
8 7 7 6 5 6 6 5 4 4 4 4 5 5 5 5 5 5 4 5 7 7 5 7 10 11 8 6 6 7 7 7 7 7 6 6 6 6 5 5 5 5 5 5
8 7 7 7 7 6 4 4 4 4 4 4 4 4 4 4 4 4 3 5 6 7 5 4 6 7 6 6 6 7 6 7 7 7 6 6 6 6 5 5 6 5 4 4
8 7 5 5 5 5 5 5 5 6 6 6 5 4 4 4 3 4 4 4 4 4 4 4 5 5 5 6 6 6 5 5 6 6 6 6 5 5 5 5 5 4 4 4
Wind_Direction
254 261 258 254 252 232 221 219 229 249 252 264 261 254 251 249 242 239 238 231 222 220 219 212 208 208 200 193 187 174 161 164 185 183 162 144 134 119 105 106 108 116 111 99
275 264 265 265 256 240 235 232 239 256 269 263 256 249 248 244 235 233 236 233 226 221 216 213 210 207 202 197 193 178 179 188 191 176 159 157 154 133 113 106 97 109 128 139
280 300 311 274 246 219 215 215 211 236 248 259 255 249 243 237 233 232 235 233 226 220 215 213 208 202 200 196 182 177 186 191 190 183 177 184 162 135 140 147 83 91 144 146
287 323 266 249 237 201 217 239 224 235 247 245 240 249 245 228 224 234 234 229 223 217 215 212 205 197 192 180 178 182 186 191 192 187 187 180 164 169 186 178 174 161 174 177
259 276 278 286 260 196 208 265 233 235 250 255 256 290 277 238 223 229 229 224 218 212 207 201 199 193 180 182 185 189 195 199 199 191 186 181 187 197 195 170 170 188 192 182
230 253 260 259 259 183 134 278 249 217 240 245 185 252 267 249 230 235 232 219 211 203 194 196 199 183 181 189 192 203 205 203 198 190 187 193 200 198 187 172 183 190 219 214
229 248 267 259 237 148 202 248 239 205 223 214 206 226 249 250 238 233 230 218 202 193 197 202 191 179 190 196 206 207 195 186 187 190 191 194 193 184 179 176 171 188 234 270
207 228 253 230 160 196 227 257 245 228 224 225 236 249 254 246 240 235 231 220 204 201 210 202 187 184 197 209 208 187 177 180 188 193 192 185 180 183 176 169 171 205 232 285
208 225 248 213 216 236 233 245 250 241 242 232 239 244 244 241 237 234 228 223 210 206 212 209 196 192 202 210 187 174 175 184 190 191 193 187 182 184 177 176 184 207 218 248
250 258 256 255 253 258 248 245 254 251 250 240 239 243 243 241 239 236 230 224 214 206 210 216 210 205 208 194 177 175 183 188 186 185 192 190 187 186 186 190 196 206 218 238
251 262 272 259 245 250 254 254 257 257 246 237 237 243 239 239 239 234 231 221 209 209 215 218 211 211 206 188 175 180 186 188 187 190 189 190 195 200 200 205 201 204 215 217
249 245 239 254 249 244 250 256 255 254 255 245 233 238 240 239 235 229 227 222 216 218 219 218 207 209 204 189 181 181 188 191 190 189 189 188 189 210 229 221 223 225 220 218
250 257 255 262 265 260 257 258 255 249 247 251 247 237 234 236 231 225 224 222 220 221 221 216 208 209 204 191 184 186 191 191 189 189 190 189 189 195 215 244 233 230 228 233
249 256 263 262 262 261 257 257 254 252 248 243 243 238 232 231 229 225 226 226 223 220 219 213 210 215 204 188 186 190 190 190 188 191 192 191 194 197 201 208 225 247 244 238
249 244 251 261 263 262 259 257 256 255 251 247 239 234 229 227 230 231 230 222 216 217 219 213 215 221 198 186 187 189 188 188 187 188 190 190 192 196 201 206 214 226 241 247
255 252 251 256 259 260 257 250 250 253 247 242 240 236 231 228 230 230 226 210 207 219 219 214 220 218 192 186 188 190 193 190 183 185 188 188 191 197 201 205 211 215 221 223
254 259 258 261 260 257 252 246 245 247 245 241 239 235 230 228 231 233 231 220 216 222 219 214 219 207 189 187 186 189 187 189 184 184 190 193 196 200 201 203 209 216 223 220
250 254 256 257 260 260 257 250 245 243 240 238 234 228 224 223 229 233 231 222 220 230 229 219 208 193 189 188 186 183 182 184 186 191 193 195 198 199 201 206 211 217 223 224
257 257 260 259 257 254 253 251 246 241 237 227 220 223 226 227 229 230 221 210 216 232 235 215 200 191 191 190 182 179 181 184 188 192 193 200 202 199 202 207 210 212 213 215
273 270 267 266 261 252 251 251 244 239 228 214 215 221 228 231 227 224 216 220 226 226 214 199 194 193 192 188 181 180 183 188 192 193 193 195 197 200 203 206 208 211 212 214
286 285 283 275 269 262 253 247 237 232 221 207 211 222 228 231 221 213 215 237 242 221 207 196 191 193 190 186 182 182 186 189 192 194 195 198 200 201 203 205 208 211 212 214
283 282 278 273 270 270 264 245 231 226 218 216 220 222 225 230 225 224 228 234 236 208 198 196 194 195 192 185 184 186 189 190 192 193 196 197 199 203 205 205 207 210 212 212
284 279 271 262 256 262 269 253 231 220 219 219 220 221 224 227 218 221 244 237 218 205 197 200 201 196 192 186 184 187 191 192 194 196 197 198 200 202 205 206 208 208 209 212
283 281 274 265 252 246 254 253 237 226 222 224 224 223 223 230 238 232 230 216 207 204 204 204 200 196 188 185 185 189 193 195 196 196 195 195 197 199 201 202 206 207 207 208
271 269 266 260 251 248 248 244 237 235 229 234 235 229 224 220 226 231 213 207 204 197 200 201 195 191 186 184 188 191 193 196 194 191 191 192 193 196 199 200 201 201 203 206
264 261 255 245 242 246 237 227 230 232 229 238 242 232 225 223 219 213 203 199 196 194 192 190 187 186 185 187 190 191 192 195 197 195 190 190 191 193 196 200 199 201 201 204
262 259 255 253 248 236 228 224 228 231 226 226 236 227 213 206 199 196 192 190 190 192 188 183 183 182 185 189 190 188 186 186 186 186 186 187 188 191 193 193 195 195 196 200
Height
1502 1497 1496 1494 1491 1490 1492 1490 1490 1477 1471 1459 1457 1456 1455 1454 1453 1453 1452 1451 1451 1450 1450 1450 1450 1450 1450 1450 1450 1450 1450 1450 1450 1450 1450 1449 1449 1449 1449 1449 1449 1449 1449 1450
1498 1492 1491 1487 1480 1480 1479 1478 1475 1471 1463 1451 1452 1451 1451 1450 1449 1449 1448 1448 1447 1447 1447 1448 1448 1448 1448 1448 1448 1448 1448 1448 1449 1448 1448 1448 1448 1448 1448 1448 1447 1447 1447 1448
1500 1493 1489 1480 1467 1467 1468 1464 1465 1463 1454 1448 1449 1447 1446 1445 1445 1444 1444 1444 1444 1444 1444 1444 1445 1445 1445 1446 1446 1446 1446 1446 1447 1447 1446 1446 1446 1446 1446 1446 1446 1446 1446 1446
1502 1496 1487 1463 1456 1457 1458 1455 1454 1450 1446 1445 1444 1442 1441 1441 1440 1440 1440 1440 1440 1440 1441 1441 1442 1442 1443 1443 1443 1443 1444 1444 1444 1444 1444 1444 1444 1444 1444 1444 1444 1444 1444 1444
1501 1497 1480 1461 1453 1453 1455 1451 1444 1444 1442 1441 1441 1441 1438 1436 1436 1436 1436 1436 1436 1437 1437 1438 1439 1439 1440 1440 1440 1441 1441 1441 1442 1442 1442 1442 1442 1442 1442 1442 1442 1442 1442 1442
1498 1493 1478 1455 1450 1448 1451 1450 1438 1438 1438 1438 1439 1443 1435 1432 1432 1432 1432 1432 1433 1433 1434 1434 1435 1436 1437 1437 1437 1438 1438 1439 1439 1439 1440 1440 1440 1440 1440 1440 1440 1440 1440 1440
1493 1489 1470 1451 1447 1448 1454 1444 1434 1434 1434 1435 1435 1434 1431 1430 1429 1429 1429 1429 1429 1429 1430 1431 1432 1432 1433 1433 1434 1435 1435 1436 1436 1437 1437 1437 1438 1438 1438 1438 1438 1438 1438 1437
1485 1483 1465 1443 1445 1446 1440 1433 1432 1431 1431 1431 1429 1428 1427 1426 1426 1426 1425 1425 1426 1426 1426 1427 1428 1428 1428 1429 1430 1431 1432 1432 1433 1434 1434 1434 1435 1435 1436 1436 1435 1435 1435 1434
1463 1453 1440 1437 1435 1433 1433 1431 1429 1428 1427 1427 1425 1424 1424 1423 1422 1422 1422 1421 1421 1422 1422 1423 1423 1424 1424 1425 1427 1427 1428 1429 1430 1430 1431 1431 1432 1432 1432 1433 1432 1432 1432 1431
1452 1439 1434 1432 1430 1429 1429 1427 1425 1424 1423 1422 1421 1420 1419 1418 1418 1418 1417 1417 1417 1417 1417 1418 1418 1419 1420 1421 1422 1423 1424 1425 1426 1427 1427 1428 1428 1429 1429 1429 1429 1429 1428 1428
1441 1431 1428 1424 1423 1423 1422 1421 1420 1419 1418 1417 1416 1415 1414 1413 1413 1413 1413 1413 1412 1412 1412 1413 1414 1414 1416 1417 1418 1419 1420 1421 1422 1423 1423 1424 1424 1425 1425 1425 1426 1426 1425 1425
1427 1421 1421 1416 1416 1417 1416 1414 1414 1413 1411 1411 1410 1409 1408 1407 1407 1407 1407 1407 1407 1407 1407 1408 1408 1409 1411 1412 1413 1414 1415 1416 1417 1418 1419 1419 1420 1421 1421 1422 1422 1422 1421 1421
1414 1412 1412 1409 1408 1408 1407 1406 1406 1405 1404 1403 1402 1402 1401 1401 1401 1401 1401 1401 1401 1401 1401 1402 1403 1404 1405 1406 1408 1409 1410 1411 1413 1413 1414 1415 1415 1416 1416 1417 1418 1418 1418 1417
1406 1406 1403 1400 1399 1398 1398 1397 1397 1396 1395 1395 1395 1394 1394 1394 1394 1394 1394 1394 1395 1395 1396 1396 1397 1398 1400 1401 1402 1404 1405 1407 1408 1409 1409 1410 1411 1411 1412 1412 1413 1413 1414 1414
1396 1396 1394 1391 1390 1389 1389 1389 1388 1386 1386 1386 1387 1386 1386 1386 1386 1386 1387 1388 1389 1389 1389 1390 1391 1392 1394 1395 1396 1398 1399 1401 1402 1403 1404 1405 1406 1407 1407 1408 1408 1409 1409 1409
1385 1385 1385 1383 1381 1380 1380 1379 1379 1378 1378 1378 1378 1378 1378 1378 1379 1379 1380 1381 1382 1381 1382 1383 1384 1386 1388 1389 1390 1392 1394 1395 1397 1398 1399 1400 1401 1402 1402 1403 1403 1404 1404 1404
1379 1375 1374 1372 1371 1370 1370 1370 1370 1370 1370 1369 1370 1370 1371 1371 1372 1372 1373 1374 1375 1375 1376 1377 1378 1380 1381 1383 1384 1386 1388 1389 1391 1392 1393 1394 1396 1396 1397 1398 1399 1399 1400 1400
1368 1366 1365 1364 1363 1362 1361 1361 1362 1362 1361 1361 1362 1363 1363 1364 1364 1365 1366 1367 1368 1368 1369 1370 1372 1373 1375 1376 1378 1379 1381 1383 1384 1386 1387 1389 1390 1391 1392 1393 1394 1394 1395 1395
1359 1358 1357 1356 1355 1355 1354 1353 1353 1354 1354 1354 1355 1355 1356 1357 1358 1359 1360 1361 1361 1361 1362 1364 1365 1367 1368 1370 1372 1373 1375 1377 1378 1380 1382 1383 1384 1386 1387 1388 1389 1389 1390 1390
1353 1352 1350 1348 1348 1347 1347 1346 1346 1347 1347 1348 1348 1349 1349 1350 1352 1352 1353 1353 1354 1355 1357 1358 1359 1360 1362 1364 1366 1368 1369 1371 1373 1374 1376 1377 1378 1380 1381 1382 1383 1384 1385 1385
1349 1347 1345 1343 1341 1341 1341 1341 1341 1341 1341 1342 1343 1343 1343 1344 1346 1346 1346 1346 1348 1350 1351 1352 1353 1354 1356 1358 1360 1362 1363 1365 1367 1368 1370 1371 1373 1374 1375 1377 1378 1379 1379 1380
1344 1342 1340 1338 1337 1336 1336 1336 1336 1336 1336 1337 1337 1338 1338 1338 1339 1340 1340 1341 1342 1344 1344 1346 1347 1349 1351 1352 1354 1356 1358 1359 1361 1363 1364 1366 1367 1368 1370 1371 1372 1373 1374 1375
1340 1337 1335 1334 1333 1332 1331 1331 1331 1331 1331 1332 1332 1332 1333 1333 1333 1334 1334 1335 1337 1338 1339 1340 1342 1344 1345 1347 1348 1350 1352 1353 1355 1357 1358 1360 1362 1363 1364 1366 1367 1368 1369 1370
1335 1333 1331 1330 1329 1328 1327 1326 1326 1326 1326 1327 1327 1327 1328 1328 1328 1328 1329 1330 1331 1332 1333 1335 1337 1338 1340 1341 1343 1344 1346 1347 1349 1351 1353 1354 1356 1358 1359 1360 1362 1363 1364 1365
1330 1328 1326 1325 1324 1323 1322 1322 1321 1321 1322 1322 1322 1322 1323 1323 1323 1323 1324 1325 1326 1327 1329 1330 1332 1333 1335 1336 1338 1339 1341 1342 1344 1346 1347 1349 1351 1352 1354 1355 1356 1358 1359 1360
1324 1323 1321 1320 1319 1318 1318 1317 1317 1317 1317 1317 1317 1317 1318 1318 1318 1318 1319 1320 1321 1322 1323 1325 1326 1328 1330 1331 1333 1334 1336 1337 1339 1340 1342 1344 1346 1347 1349 1350 1351 1353 1354 1355
1317 1316 1314 1313 1313 1313 1312 1312 1312 1311 1312 1312 1312 1312 1313 1313 1313 1314 1314 1315 1316 1317 1318 1320 1322 1323 1325 1327 1328 1330 1331 1333 1334 1336 1337 1339 1341 1342 1344 1345 1347 1348 1349 1350